Terminal Aerodrome Forecast
Issued by NWS Caribou, ME

Home | Current Version | Previous Version | Text Only | Print | Product List | Glossary On
Versions: 1 2 3 4 5 6 7 8 9 10 11 12 13 14
000
FTUS41 KCAR 040520
TAFBGR
TAF
KBGR 040520Z 0406/0506 18005KT P6SM BKN110
     FM041600 19010G20KT P6SM SKC
     FM050500 24008KT P6SM BKN120 OVC200=

USA.gov is the U.S. government's official web portal to all federal, state and local government web resources and services.